Location: Newark
(32.9900°N, 111.5400°W)
Time: 20:20:55
(UTC+00:00)

N. Korean satellite - Pass Details

Date: 24 November 2019
Orbit: 456 x 506 km, 97.2° (Epoch: 06 December)

Event Time Altitude Azimuth Distance (km) Brightness Sun altitude
Rises 13:27:59 0° 5° (N) 2,589 10.1 -8.0°
Reaches altitude 10° 13:30:07 10° 1° (N) 1,695 9.1 -7.6°
Maximum altitude 13:33:40 52° 284° (WNW) 612 6.7 -6.9°
Drops below altitude 10° 13:37:09 10° 207° (SSW) 1,656 9.2 -6.2°
Sets 13:39:12 0° 202° (SSW) 2,521 10.2 -5.8°
